Buckeye, AZ

2:10 PM MST on July 22, 2019 (GMT -0700)
Buckeye Municipal

Weather History for KBXK - May, 2019

Change the Weather History Date:

Tuesday, May 21, 2019

  Actual Average (KGYR) Record (KGYR)
Temperature  
Mean Temperature 71 °F -  
Max Temperature 78 °F 95 °F 111 °F (2005)
Min Temperature 62 °F 65 °F 55 °F (2002)
Cooling Degree Days 6    
Growing Degree Days 21 (Base 50)    
Moisture  
Dew Point 30 °F    
Average Humidity 21    
Maximum Humidity 39    
Minimum Humidity 14    
Precipitation  
Precipitation 0.00 in - - ()
Sea Level Pressure  
Sea Level Pressure 29.67 in    
Wind  
Wind Speed 17 mph (WSW)    
Max Wind Speed 25 mph    
Max Gust Speed 36 mph    
Visibility 10 miles    
Events      
Averages and records for this station are not official NWS values.
T = Trace of Precipitation, MM = Missing Value Source: NWS Daily Summary

Daily Weather History Graph

Daily Weather History Graph

Search for Another Location

Airport or City:

Astronomy

May. 21, 2019 Rise Set
Actual Time 5:26 AM MST 7:28 PM MST
Civil Twilight 4:59 AM MST 7:56 PM MST
Nautical Twilight 4:25 AM MST 8:30 PM MST
Astronomical Twilight 3:49 AM MST 9:06 PM MST
Moon 10:25 PM MST (5/21) 7:48 AM MST (5/21)
Length of Visible Light 14h 57m
Length of Day
14h 01m
Waning Gibbous, 91% of the Moon is Illuminated
May 21
Waning Gibbous
May 26
Last Quarter
Jun 3
New
Jun 9
First Quarter
Jun 17
Full

Hourly Weather History & Observations

Time (MST) Temp. Dew Point Humidity Pressure Visibility Wind Dir Wind Speed Gust Speed Precip Events Conditions
11:35 AM 73.4 °F 32.0 °F 22% 29.79 in 10.0 mi SW 13.8 mph 25.3 mph N/A   Clear
11:55 AM 73.4 °F 32.0 °F 22% 29.78 in 10.0 mi SSW 18.4 mph 24.2 mph N/A   Clear
12:15 PM 75.2 °F 32.0 °F 21% 29.77 in 10.0 mi SW 18.4 mph 29.9 mph N/A   Clear
12:35 PM 75.2 °F 32.0 °F 21% 29.76 in 10.0 mi SW 18.4 mph 26.5 mph N/A   Clear
12:55 PM 77.0 °F 32.0 °F 19% 29.75 in 10.0 mi SW 16.1 mph 24.2 mph N/A   Clear
1:15 PM 75.2 °F 30.2 °F 19% 29.73 in 10.0 mi WSW 13.8 mph 31.1 mph N/A   Clear
1:35 PM 77.0 °F 30.2 °F 18% 29.72 in 10.0 mi SW 18.4 mph 29.9 mph N/A   Clear
1:55 PM 77.0 °F 28.4 °F 17% 29.71 in 10.0 mi SW 23.0 mph 29.9 mph N/A   Clear
2:15 PM 77.0 °F 30.2 °F 18% 29.69 in 10.0 mi WSW 18.4 mph 28.8 mph N/A   Clear
2:35 PM 78.8 °F 30.2 °F 17% 29.68 in 10.0 mi WSW 20.7 mph 26.5 mph N/A   Clear
2:55 PM 78.8 °F 28.4 °F 16% 29.67 in 10.0 mi WSW 18.4 mph 26.5 mph N/A   Clear
3:15 PM 77.0 °F 28.4 °F 17% 29.67 in 9.0 mi SW 20.7 mph 34.5 mph N/A   Clear
3:35 PM 77.0 °F 26.6 °F 16% 29.66 in 10.0 mi SW 19.6 mph 33.4 mph N/A   Clear
3:55 PM 77.0 °F 26.6 °F 16% 29.64 in 10.0 mi WSW 23.0 mph 28.8 mph N/A   Clear
4:15 PM 78.8 °F 24.8 °F 14% 29.63 in 10.0 mi SW 25.3 mph 34.5 mph N/A   Clear
4:35 PM 78.8 °F 24.8 °F 14% 29.63 in 10.0 mi WSW 17.3 mph 33.4 mph N/A   Clear
4:55 PM 78.8 °F 24.8 °F 14% 29.62 in 10.0 mi SW 21.9 mph 34.5 mph N/A   Clear
5:15 PM 77.0 °F 24.8 °F 14% 29.61 in 10.0 mi WSW 20.7 mph 32.2 mph N/A   Clear
5:35 PM 77.0 °F 28.4 °F 17% 29.61 in 10.0 mi WSW 20.7 mph 31.1 mph N/A   Clear
6:15 PM 75.2 °F 32.0 °F 21% 29.60 in 10.0 mi SW 20.7 mph 26.5 mph N/A   Clear
6:35 PM 75.2 °F 24.8 °F 15% 29.59 in 10.0 mi WSW 21.9 mph 35.7 mph N/A   Clear
6:55 PM 73.4 °F 24.8 °F 16% 29.60 in 10.0 mi WSW 24.2 mph 31.1 mph N/A   Clear
7:15 PM 73.4 °F 26.6 °F 18% 29.60 in 10.0 mi WSW 19.6 mph 26.5 mph N/A   Clear
7:35 PM 73.4 °F 26.6 °F 18% 29.61 in 10.0 mi West 12.7 mph 23.0 mph N/A   Clear
7:55 PM 71.6 °F 28.4 °F 20% 29.62 in 10.0 mi WSW 11.5 mph - N/A   Clear
8:15 PM 71.6 °F 30.2 °F 22% 29.62 in 10.0 mi WSW 13.8 mph 19.6 mph N/A   Partly Cloudy
8:35 PM 71.6 °F 32.0 °F 23% 29.64 in 10.0 mi WSW 10.4 mph 18.4 mph N/A   Unknown
8:55 PM 68.0 °F 30.2 °F 24% 29.64 in 10.0 mi West 11.5 mph - N/A   Scattered Clouds
9:15 PM 68.0 °F 32.0 °F 26% 29.65 in 10.0 mi WSW 6.9 mph - N/A   Scattered Clouds
9:35 PM 66.2 °F 32.0 °F 28% 29.66 in 10.0 mi SW 10.4 mph - N/A   Scattered Clouds
9:55 PM 68.0 °F 32.0 °F 26% 29.66 in 10.0 mi SW 17.3 mph 23.0 mph N/A   Scattered Clouds
10:15 PM 68.0 °F 32.0 °F 26% 29.66 in 10.0 mi WSW 16.1 mph 24.2 mph N/A   Unknown
10:35 PM 66.2 °F 32.0 °F 28% 29.66 in 10.0 mi WSW 18.4 mph 26.5 mph N/A   Overcast
10:55 PM 66.2 °F 32.0 °F 28% 29.67 in 10.0 mi WSW 12.7 mph 20.7 mph N/A   Overcast
11:15 PM 64.4 °F 35.6 °F 34% 29.68 in 10.0 mi SW 9.2 mph - N/A   Mostly Cloudy
11:35 PM 64.4 °F 35.6 °F 34% 29.67 in 10.0 mi SW 8.1 mph - N/A   Scattered Clouds
11:55 PM 62.6 °F 37.4 °F 39% 29.68 in 10.0 mi SW 9.2 mph - N/A   Partly Cloudy